Back to catalog

HAIYANG 1D

AliveScienceSSO
NORAD 45721·PAYLOAD·🇨🇳 China

Launched Jun 10, 2020 from Taiyuan Satellite Launch Center

Loading…

Next Passes (next 24 hours)

TLE

FreshSource: Space-Track

Epoch: Sep 14, 2026, 14:56 UTC

1 45721U 20036A   26257.62251145 -.00000055  00000-0 -43956-5 0  9992
2 45721  98.4605 197.3759 0001557 233.7872 126.3170 14.34196775327799

Track HAIYANG 1D in real time with AllMySat

Download on the App Store